GFSNIL_con_mlcape_000.txt.gz
CAPE
1649 1373 1147 394 38 98 0 0 0 0 0 0 0 0 0 0 0 0 0 20 8 0
1592 1420 1375 99 0 0 0 0 0 0 0 0 0 0 0 0 0 0 0 0 0 0
1293 1318 474 0 0 0 0 0 0 0 0 0 0 0 0 0 0 0 0 0 0 0
920 786 1 0 0 0 0 0 0 0 0 0 0 0 0 0 0 0 0 12 27 26
535 305 0 0 0 0 0 0 0 0 0 0 0 0 0 0 0 0 0 0 29 46
341 257 22 0 0 0 0 0 0 0 0 0 0 0 0 0 0 0 0 9 31 24
409 335 41 0 0 0 0 0 0 0 0 0 0 0 0 0 0 0 5 27 48 10
500 189 8 12 2 0 2 15 5 0 0 0 0 0 0 0 0 3 44 41 27 4
218 79 0 18 71 58 171 89 23 3 0 0 0 2 0 19 23 28 56 34 6 0
155 77 11 3 0 109 204 93 6 4 4 9 22 16 22 35 37 55 31 12 0 0
278 59 0 0 0 62 1 0 2 19 43 24 85 69 46 74 28 26 26 6 0 0
354 254 127 0 0 3 2 17 47 97 120 93 102 136 133 41 46 26 14 1 0 0
395 200 45 0 0 0 14 24 43 96 95 79 89 133 22 50 39 30 0 0 0 0
536 151 9 0 0 1 18 26 56 14 0 5 6 46 44 7 41 8 0 0 0 0

GFSNIL_con_mlcape_003.txt.gz
CAPE
1917 2140 2257 1869 1313 844 596 510 96 0 0 63 1 0 0 0 0 0 0 29 20 48
1949 2155 2202 1955 1516 1116 522 320 50 0 7 17 0 0 0 0 0 0 0 41 86 34
2018 2150 2210 2154 1656 820 358 155 62 1 5 0 0 0 0 0 0 0 0 0 68 96
1820 1978 2089 1904 1809 643 194 120 34 20 5 6 8 3 0 0 0 0 0 42 39 91
1802 1369 903 1273 775 65 36 97 25 40 35 38 76 82 20 0 0 0 0 0 43 72
1379 1100 1180 637 354 0 0 0 58 40 22 34 74 141 162 3 0 0 13 27 44 99
1077 977 544 320 28 0 3 31 20 2 9 41 107 104 47 0 0 0 19 47 83 163
1077 682 271 163 2 0 0 0 0 0 0 16 59 44 3 9 63 166 199 176 219 102
886 400 233 111 0 0 0 0 0 0 0 23 58 30 9 26 209 359 442 281 87 87
643 370 241 112 2 0 0 0 0 3 44 115 108 82 38 38 185 322 298 155 157 158
581 479 283 173 38 0 0 0 4 22 234 240 260 161 63 36 197 218 248 203 153 160
534 560 393 246 96 0 0 0 7 62 86 124 206 41 51 95 116 116 96 173 192 64
571 477 448 433 317 128 25 6 28 45 60 100 154 56 75 7 27 55 69 125 39 0
714 671 525 488 254 41 9 19 41 81 170 120 147 114 29 0 29 42 104 103 61 0

GFSNIL_con_mlcape_006.txt.gz
CAPE
2710 2443 2130 1899 972 481 240 124 208 1190 354 110 62 66 0 0 0 9 8 5 17 14
2814 2616 1843 1651 1843 954 672 170 630 715 351 69 106 12 0 0 1 0 0 2 6 26
2480 2659 2459 2232 1989 1274 1144 952 521 488 147 47 57 4 12 0 0 0 0 0 0 3
2137 2278 2612 2549 2678 2408 2015 1147 660 489 151 105 70 12 9 6 0 0 0 0 0 19
2132 2178 2390 2826 2611 2120 2210 813 633 387 187 112 77 45 90 26 0 0 0 0 0 63
2065 2240 2276 2584 2300 2296 1263 43 55 0 15 123 93 58 98 142 88 4 0 0 16 58
2256 2142 2343 2270 1467 952 146 0 0 0 0 0 149 122 117 131 148 8 0 35 90 142
2495 2473 2274 1876 1062 531 0 0 0 0 0 0 103 64 65 104 55 41 72 116 182 252
2654 2518 2090 1507 735 543 5 0 0 0 0 0 0 0 0 40 66 113 232 312 404 386
2603 2285 1864 1294 892 521 42 0 0 0 0 0 39 5 0 17 31 126 253 518 397 252
2262 2033 1701 1292 901 545 92 0 21 115 46 3 23 133 48 23 139 272 614 591 390 178
1917 1728 1411 1183 1024 835 417 171 339 417 284 212 254 203 80 74 183 353 545 241 139 64
1715 1680 1464 1267 1251 824 716 571 383 447 407 378 596 70 42 65 280 267 153 49 130 73
1682 1761 1730 1462 1129 962 749 534 624 500 415 474 162 486 45 0 141 106 119 144 242 166

GFSNIL_con_mlcape_009.txt.gz
CAPE
2824 1936 1459 1581 1411 771 479 426 1361 1124 784 380 73 153 94 8 0 3 0 0 0 1
3012 2698 1574 1508 1797 1433 753 410 292 967 680 422 54 151 37 0 24 5 2 3 6 1
2993 3206 2783 2752 2257 1748 1109 750 611 966 719 316 90 201 72 10 0 1 0 0 0 2
2712 2851 3084 2888 2530 2514 1627 1634 880 1137 732 167 145 143 106 79 6 13 24 0 0 0
2772 2783 2773 3107 3019 2759 2148 2041 1333 1018 806 182 88 53 118 100 37 0 0 0 0 6
2616 2871 2746 3067 3008 3124 2960 2413 1582 1119 863 187 122 102 129 128 91 70 18 4 11 49
2760 2795 2760 2970 3079 3188 2980 2675 1592 1041 752 248 226 121 142 139 175 281 261 101 78 144
2912 2838 2760 2720 3184 3197 3004 2569 1585 839 470 412 122 138 248 58 51 249 315 88 92 194
3287 3118 3011 3037 3248 3112 2693 2203 1292 514 108 12 0 0 5 92 1 207 238 125 251 448
3578 3515 3576 3376 3084 2687 2013 1627 774 246 0 0 27 2 2 0 7 63 221 366 492 592
3504 3700 3609 3256 2779 2129 1733 1398 712 194 4 95 118 29 0 0 10 21 63 285 587 750
3289 3455 3202 2841 2479 1812 1587 1435 720 258 80 383 488 165 10 23 60 233 437 619 731 930
3136 3003 2744 2494 2161 1827 1764 1336 934 502 555 765 790 378 109 150 314 417 566 612 1022 475
2737 2676 2441 2112 2023 1917 1638 1294 895 625 738 920 863 675 209 128 362 446 568 721 554 365

GFSNIL_con_mlcape_012.txt.gz
CAPE
2045 2571 1935 1572 1492 1514 948 644 1256 828 859 688 225 158 250 254 59 65 37 0 0 0
2509 2638 2731 1710 1662 2015 999 1225 1202 968 1413 626 556 360 371 104 61 70 101 88 15 0
3439 2628 2202 1895 1824 1470 1760 771 1446 1302 1155 876 421 301 368 73 183 64 27 25 12 45
3298 3275 2437 2900 2184 2539 1505 1335 1413 1332 1195 934 604 359 300 53 21 49 51 15 4 1
3367 3378 3283 2499 3087 2561 2755 2048 1092 1289 1276 1045 503 350 243 5 10 168 95 62 23 0
3189 3376 3289 3369 2747 3384 2680 2363 1781 1556 1290 1179 496 448 316 86 54 45 1 6 9 0
3084 3174 3088 3298 3480 3036 3188 2753 2404 1844 1584 1358 646 447 242 343 358 143 43 147 63 47
3151 3138 3162 3110 3442 3500 3360 3361 2932 2467 1861 1577 803 513 540 514 425 349 299 473 98 52
2935 3304 3165 3291 3180 3579 3510 3664 3292 2781 1929 1580 870 256 271 397 473 395 429 383 406 120
2652 3179 3379 3293 3290 3396 3601 3513 3252 2943 1926 1328 730 25 1 141 314 112 253 774 430 250
2954 3386 3488 3464 3422 3556 3665 3469 3057 2531 1647 751 282 76 9 2 4 9 257 405 434 291
4172 4133 4058 4026 3966 3822 3462 2875 2383 1818 889 298 183 39 22 4 0 2 150 247 262 450
4147 4407 4361 4150 3798 3080 2498 2120 1801 1285 749 319 278 458 235 59 98 49 201 278 231 297
4009 4147 4085 3719 2990 2308 1986 1988 1568 1059 692 567 355 711 416 167 265 317 321 224 464 594

GFSNIL_con_mlcape_015.txt.gz
CAPE
1955 1575 1101 981 1852 1370 1265 1331 1125 880 462 245 23 319 148 148 61 80 0 15 0 0
1592 1891 1690 1356 1342 1598 1269 1362 1248 818 518 262 138 8 282 178 45 115 17 0 0 0
1940 1804 1701 2020 1534 1427 1310 1100 996 992 633 520 252 120 185 139 84 0 81 35 2 0
2212 2247 1820 1912 2117 1272 1599 1124 925 1016 867 614 430 227 202 136 57 24 4 18 0 8
2627 2591 2305 1854 2091 1775 1394 1515 1269 1005 998 848 548 296 194 124 91 3 81 0 0 0
2719 2862 2674 2263 2097 2140 1796 1596 1469 1288 970 864 718 451 306 157 71 17 18 19 0 3
2830 2705 2835 2918 2250 2236 2761 2234 1664 1345 1137 917 779 533 422 260 125 2 37 121 105 101
2904 2910 2995 2957 3080 2512 2422 2792 2411 1783 1311 1119 862 593 497 324 172 129 0 178 64 25
2870 2958 2997 3091 3019 3189 2840 2706 2715 2361 1805 1486 1248 842 613 421 331 236 223 103 156 236
2699 2885 2962 3040 3025 3158 3306 3165 3139 2850 2371 1871 1589 843 489 448 374 330 332 243 267 553
2707 2674 2998 3078 3153 3116 3331 3355 3368 3158 2775 2291 1550 792 450 203 277 320 303 365 490 306
2397 2713 2990 3194 3220 3241 3339 3417 3313 2850 2410 1957 1232 618 120 8 11 115 103 112 215 381
2205 2641 3079 3273 3290 3405 3350 3007 2794 2498 1994 1283 864 267 177 16 3 0 0 3 35 264
2769 3358 3446 3573 3446 3117 2712 2668 2426 1900 1113 712 629 403 153 36 79 164 174 92 76 120

GFSNIL_con_mlcape_018.txt.gz
CAPE
1143 990 725 487 768 1116 1141 1289 1169 975 707 425 125 0 0 5 0 0 0 0 0 0
1217 1089 891 923 1256 1257 1279 1173 1035 955 851 468 120 48 26 49 11 23 1 0 0 0
1334 1421 1195 1180 1167 1163 1389 1294 1047 1032 831 433 179 72 34 32 67 14 9 0 0 0
1289 1259 1522 1468 1454 1267 1205 1223 1110 964 733 478 243 114 54 20 53 20 0 7 0 0
1667 1600 1370 1365 1485 1556 1509 1143 1157 1062 835 585 408 229 118 89 50 19 0 0 14 5
1992 1929 1794 1478 1529 1560 1526 1387 1144 955 906 704 601 400 301 191 55 10 6 0 0 0
2207 2089 2075 1955 1692 1686 1616 1569 1387 1163 1077 934 654 494 458 324 170 32 28 0 0 0
2257 2356 2348 2304 2075 1849 1842 1741 1625 1389 1261 1036 899 705 563 407 280 101 62 38 0 34
2482 2458 2448 2571 2532 2176 2016 2132 1912 1635 1503 1368 1115 897 663 586 430 270 126 77 0 2
2706 2604 2559 2586 2659 2691 2381 2207 2185 2091 2010 1824 1548 1192 824 604 489 443 334 146 69 11
2751 2676 2693 2730 2740 2751 2835 2593 2481 2330 2160 2141 1956 1510 1025 659 534 465 402 350 182 136
2724 2628 2722 2662 2755 2808 2929 2949 2854 2874 2620 2393 1648 1506 1057 792 550 466 407 314 327 412
2626 2573 2625 2743 2785 2844 2941 2926 3019 2943 2739 2450 1746 1117 1064 721 431 398 219 201 233 142
2542 2532 2559 2796 2861 2923 2956 2937 2714 2480 2026 1681 1747 1035 670 226 133 33 1 0 0 14

GFSNIL_con_mlcape_021.txt.gz
CAPE
741 594 530 504 543 490 692 1003 1252 1213 1024 738 209 82 46 0 0 0 0 0 0 0
759 697 636 621 652 679 532 1121 1178 1196 1080 734 371 98 38 0 0 0 0 0 0 0
803 817 787 760 786 653 527 1038 998 1121 1071 691 406 176 51 2 0 1 0 0 0 0
895 960 907 879 838 790 853 1084 1119 1070 1022 676 468 256 135 59 0 0 0 0 0 0
982 1086 1065 967 964 837 873 1078 1141 1124 971 719 604 394 248 146 35 2 0 0 0 0
1028 1025 1108 1194 1194 1121 970 1168 1042 1034 1076 842 691 500 223 175 135 52 28 0 0 0
1271 1186 1089 1176 1276 1318 1203 1134 1209 1151 1034 1014 848 633 414 261 203 114 108 18 4 0
1483 1458 1445 1370 1261 1277 1287 1310 1141 1165 1154 1044 894 760 619 484 394 352 269 38 31 14
1698 1687 1698 1723 1619 1498 1410 1408 1264 1176 1125 1137 1128 895 730 656 567 438 339 296 153 46
1781 1804 1874 1941 1922 1792 1666 1621 1415 1353 1309 1181 1396 1137 1006 753 648 495 346 366 311 156
2005 1891 2015 2109 2104 2080 1895 1825 1795 1528 1436 1431 1468 1280 1039 971 790 609 487 459 423 376
2264 2206 2150 2118 2159 2288 2236 1952 1977 1822 1671 1688 1732 1544 1507 1116 839 702 684 560 587 363
2396 2385 2320 2244 2256 2318 2404 2357 2117 2149 2093 2036 2069 1753 1621 1376 1077 886 992 912 484 368
2546 2516 2444 2403 2389 2469 2504 2598 2499 2511 2413 2294 2234 1731 965 1204 1210 1158 890 642 298 119

GFSNIL_con_mlcape_024.txt.gz
CAPE
284 268 251 249 283 224 318 763 925 997 972 811 605 364 121 4 0 0 0 0 0 0
349 343 318 310 346 395 542 647 844 844 952 880 680 504 203 49 17 0 0 0 0 0
447 453 433 403 430 438 518 673 702 735 1007 947 756 524 278 114 50 0 0 0 0 0
601 597 514 472 525 543 567 666 810 671 953 899 819 625 428 179 96 13 0 0 0 0
755 735 625 564 605 638 652 719 806 624 909 923 709 709 627 465 215 83 1 0 0 0
883 812 765 680 710 682 801 853 836 712 858 952 895 692 628 551 502 270 98 1 0 0
918 893 863 846 820 770 849 893 957 895 1029 1031 1014 824 680 579 630 496 272 93 5 12
930 965 975 1029 983 985 957 982 1002 915 953 1047 956 935 846 662 678 611 433 218 80 53
1065 1046 1005 1010 1102 1116 1157 1180 1087 1054 940 1067 1112 921 760 913 825 619 527 447 273 158
1206 1246 1219 1189 1103 1080 1118 1217 1191 1176 1102 1001 1196 1024 893 845 934 909 716 590 430 331
1412 1453 1483 1487 1367 1278 1228 1178 1243 1225 1211 1145 1107 997 890 843 984 988 862 741 619 644
1536 1598 1626 1645 1622 1630 1558 1430 1398 1356 1288 1338 1283 936 825 806 970 977 1032 864 696 726
1623 1629 1690 1777 1856 1870 1837 1707 1608 1514 1455 1481 1535 1058 915 935 1160 1181 1156 880 791 681
1864 1826 1830 1913 2118 2130 2144 2010 1779 1698 1604 1662 1626 1393 1066 1009 1363 1467 1195 1201 910 668

GFSNIL_con_mlcape_027.txt.gz
CAPE
840 960 909 815 851 952 916 962 1139 1287 1403 1384 1289 1219 956 776 498 169 96 26 0 33
804 840 882 852 892 901 1049 1005 1256 1305 1418 1541 1481 1278 999 692 387 141 78 46 21 0
759 830 884 940 820 885 1032 1067 1096 1365 1554 1556 1418 1349 1139 923 508 243 152 70 56 37
813 875 901 945 932 921 1061 1117 1209 1341 1363 1475 1322 1353 1264 1146 745 434 370 126 47 48
928 956 923 909 946 994 1005 1123 1215 1356 1382 1445 1348 1385 1293 1261 966 696 548 353 59 22
1076 1069 1044 1011 1055 1088 1108 1140 1189 1344 1377 1426 1426 1361 1264 1339 1271 906 772 550 249 46
1121 1143 1169 1160 1177 1172 1215 1158 1206 1329 1440 1460 1425 1369 1333 1262 1372 1188 948 780 508 287
1214 1339 1367 1274 1247 1298 1363 1242 1277 1298 1419 1482 1376 1268 1354 1307 1428 1348 1138 993 784 531
1387 1471 1438 1402 1358 1339 1363 1352 1455 1451 1442 1441 1397 1191 1078 1304 1431 1369 1311 1302 1143 789
1279 1449 1502 1531 1533 1420 1481 1445 1410 1404 1453 1474 1526 993 754 824 1393 1448 1470 1480 1444 1128
1278 1378 1511 1601 1601 1619 1614 1541 1518 1475 1475 1503 1584 1071 683 651 1251 1470 1509 1566 1550 1320
1194 1373 1572 1544 1566 1688 1741 1764 1732 1751 1659 1567 1642 1107 814 642 1084 1538 1581 1664 1554 1292
1408 1519 1558 1696 1777 1827 1769 1794 1828 1843 1782 1637 1690 1183 846 797 1309 1490 1596 1659 1446 907
1751 1803 1882 1980 2080 2125 2113 2080 1974 1937 1831 1721 1580 1817 853 825 1407 1506 1571 1505 1159 1258

GFSNIL_con_mlcape_030.txt.gz
CAPE
2007 1595 1668 1628 1255 1217 930 927 994 1598 1806 1958 1971 2183 2093 2082 1687 1136 954 338 38 1
2060 1860 1301 1557 1865 1391 1475 1147 1252 1393 1845 1817 1965 2100 2177 1904 1770 899 911 275 291 37
1876 2037 1866 1951 1964 1744 1559 1595 1265 1575 1676 1774 1979 2256 2307 1845 1768 1473 832 318 82 175
1780 1840 1977 1951 2011 2098 1827 1942 1871 1781 1787 1677 2069 2296 2413 2100 1717 1767 1316 795 253 283
1924 1918 1803 1979 2008 2147 2027 2015 2163 2070 2030 1864 1820 2062 2239 2254 1711 1872 1628 1402 949 382
1841 1865 1931 2102 2081 2162 2123 2172 1873 2175 2280 2113 1954 2015 2103 2199 2229 1970 1938 1705 1445 936
2040 1947 2016 2188 2135 2188 2255 2279 2227 2198 2534 2375 2165 2035 1982 2011 2144 2175 2011 2018 1778 1356
2156 2261 2223 2194 2206 2246 2379 2308 2367 2352 2433 2581 2194 1965 2181 2104 2012 2236 2140 2104 2068 1766
2214 2422 2343 2374 2319 2355 2339 2386 2417 2313 2494 2461 2219 1811 1559 2053 1973 2348 2288 2242 2193 1994
2240 2368 2429 2515 2509 2394 2379 2502 2432 2407 2431 2527 2553 1733 1419 1396 1786 2266 2279 2322 2398 2206
2206 2424 2627 2619 2586 2554 2584 2526 2673 2626 2605 2598 2735 2137 1337 1210 1556 2218 2295 2335 2493 2513
2208 2235 2465 2683 2610 2745 2644 2594 2637 2565 2730 2855 2814 2246 1616 1277 1566 1723 2427 2353 2436 2565
2242 2305 2337 2654 2758 2754 2670 2554 2475 2542 2696 2765 2912 2581 1677 1457 1707 1796 1860 2436 2561 1983
2369 2477 2527 2798 2805 2802 2726 2484 2714 2711 2702 2872 2890 2798 1760 1390 1783 1896 1929 1704 2055 2172

GFSNIL_con_mlcape_033.txt.gz
CAPE
2436 1928 1470 1374 907 802 703 574 906 2171 2019 2096 2182 2280 2351 2375 2192 1667 1488 828 45 63
2632 2365 1846 1762 1825 1806 1390 783 1261 1946 2240 2142 2156 2290 2390 2029 2438 1704 1545 988 594 107
2819 2853 2423 2365 2469 1937 1940 1782 1842 1499 1815 2155 2228 2318 2530 2012 2226 2126 1234 542 503 423
2641 2744 2883 2410 2622 2561 2583 2647 1846 2288 2029 2171 2305 2388 2693 2295 2011 2268 1983 1077 755 534
2567 2671 2710 2853 2484 2813 2806 2655 2833 2499 2554 2424 2407 2443 2653 2622 1496 2244 2238 1965 1232 749
2618 2682 2556 2774 2913 2765 2900 2950 2773 2825 2906 2746 2482 2428 2872 2850 2582 2311 2340 2251 2093 1581
2807 2672 2762 2757 3037 2961 3042 3028 2955 2827 2990 3012 2912 2645 2750 2819 2811 2664 2550 2494 2449 2246
2695 2966 2968 2890 2972 3111 3131 3143 3089 2989 2995 3330 3180 2643 2712 2556 2753 2794 2828 2649 2706 2601
2783 3096 3202 3212 3129 3293 3152 3252 3215 3110 3072 3062 3159 2536 2171 2695 2766 2815 2938 2857 2819 2580
2769 3125 3350 3428 3434 3313 3341 3347 3230 3193 3321 3211 3258 2626 1942 1894 2694 2884 2754 2902 2928 2854
2683 3080 3395 3561 3535 3562 3557 3452 3461 3476 3458 3409 3454 3034 2135 1710 2101 2649 2750 2841 3015 3016
2888 3039 3378 3436 3536 3649 3602 3547 3510 3570 3598 3569 3477 3107 2644 1928 2003 2314 2524 2684 2951 3013
3077 3217 3364 3534 3673 3731 3702 3567 3421 3480 3608 3636 3659 3386 2717 2304 2398 2263 2500 2613 2809 2652
3119 3440 3422 3492 3722 3860 3824 3401 3534 3448 3530 3600 3549 3694 2812 2327 2712 2478 2373 2502 2610 2934

GFSNIL_con_mlcape_036.txt.gz
CAPE
2217 1962 766 1769 892 418 967 1079 1823 1595 2189 1998 1792 1955 2337 2610 2243 2201 1315 1356 88 145
1462 2496 1844 1309 1552 1464 784 1297 1250 1859 2164 1903 2217 2435 2303 2205 2618 2188 1941 1398 837 83
2189 2189 2404 1854 1746 1271 1781 939 1677 2163 2067 2318 2146 2696 2413 2566 2162 2219 2180 1623 1196 240
2678 2195 2135 2362 2205 2544 1669 2530 1368 2776 2324 2334 2510 2453 2669 2330 2241 2422 2145 1626 1063 787
2577 2832 2561 2085 2385 2687 3016 2111 2995 2133 2273 2639 2360 2545 2581 2655 1984 2460 2386 1873 1136 1248
2553 2580 2778 2813 2381 2612 2722 3018 2571 3077 2722 2319 2481 2420 2697 2715 2684 1720 2737 2584 1953 1344
2764 2752 2803 2945 3046 2632 2633 2809 2836 2858 2901 3117 2758 2710 2663 2778 2996 2710 2153 2856 2658 2253
2781 2874 2837 2969 3050 3241 3023 2813 2973 2996 3022 2985 3183 2939 2762 2725 3002 3027 2578 2344 2912 2695
2847 2875 3159 3020 3124 3193 3362 3295 3180 3289 3181 3049 3178 3120 2763 2754 2883 3138 2919 2803 2685 2891
2701 2848 3033 3317 3215 3237 3364 3508 3431 3449 3413 3164 3199 3073 2766 2492 2788 2862 2898 2874 2850 2896
2921 2893 3172 3374 3492 3510 3496 3608 3594 3647 3591 3483 3403 3095 2741 2517 2527 2760 2828 2862 2882 2898
3062 3132 3258 3488 3610 3743 3797 3730 3864 3780 3789 3678 3530 3282 2882 2528 2539 2512 2594 2904 3027 2974
2773 3076 3262 3592 3880 3953 3943 3946 3886 3902 3820 3828 3692 3527 3051 2680 2823 2528 2443 2557 2958 2843
2963 2919 3298 3469 3929 4099 4128 4100 4038 3957 3952 3910 3831 3813 3340 2784 3150 2965 2591 2443 2564 2802

GFSNIL_con_mlcape_039.txt.gz
CAPE
1662 1257 802 819 456 179 766 1135 1160 1600 1755 1490 1310 1284 1698 1611 1449 1286 439 638 63 12
958 1969 1177 528 1105 770 482 991 1215 1417 1868 1771 1487 1118 1503 2253 1649 1920 1523 438 449 82
908 924 2047 1120 538 1373 634 426 1301 1449 1740 1795 1587 1380 1228 2146 2155 1799 1922 1506 828 161
1579 1055 1460 1911 953 824 1315 1353 583 1363 1792 1662 1728 1700 1578 1599 2080 2104 2073 1859 1485 949
2116 1926 1201 1810 2103 690 1397 1104 1928 1688 1770 1989 1771 1716 2109 2012 1896 1857 1747 2036 1615 1240
1967 2270 1858 1543 1644 2271 1286 1744 1311 2232 2186 2073 2110 2051 1936 1946 1866 1813 2090 1933 1802 1399
2272 2295 2423 2107 1668 1426 2254 1898 2194 1819 2350 2405 2157 2069 2182 2066 1945 1982 1656 2117 2297 1910
2464 2350 2334 2351 2443 2153 1549 2231 2210 2348 2396 2448 2455 2373 2196 2173 2126 2048 2000 1649 2031 2343
2554 2519 2313 2362 2296 2608 2565 2026 2259 2440 2311 2545 2684 2633 2293 2300 2310 2285 2195 2040 1815 2161
2661 2555 2552 2428 2588 2549 2647 2834 2496 2238 2578 2433 2657 2635 2569 2473 2505 2440 2489 2409 2378 2026
2541 2700 2651 2693 2612 2774 2821 2930 3036 3011 2734 2831 2834 2648 2473 2493 2750 2626 2548 2767 2716 2598
2540 2687 2855 2788 2925 2947 2964 3061 3099 3306 3264 3136 3092 2873 2637 2389 2681 2771 2714 2721 2819 2923
2563 2709 2758 2899 2915 3069 3216 3161 3246 3212 3434 3389 3315 3183 2751 2642 2765 2765 2745 2698 2626 2635
2941 2948 3012 3034 3157 3267 3400 3487 3468 3515 3510 3660 3604 3518 3116 2736 3056 3043 2888 2743 2616 2554

GFSNIL_con_mlcape_042.txt.gz
CAPE
486 459 410 486 364 154 133 221 345 639 1155 1547 1339 1142 1031 1141 1088 996 506 294 53 23
662 636 601 593 393 240 216 503 501 689 958 1499 1426 1216 1186 1120 1218 1254 715 320 380 67
785 1103 865 656 598 536 264 508 774 876 1170 1361 1446 1302 1241 1386 1371 1506 1465 1103 325 257
597 626 1394 1245 600 529 836 615 673 1005 1147 1353 1407 1429 1292 1144 1516 1678 1591 1582 1386 610
1146 857 670 1270 1390 850 572 695 895 974 1290 1484 1557 1543 1430 1176 1211 1672 1652 1691 1631 1550
1386 1288 979 745 1255 1429 1034 782 911 1392 1098 1129 1394 1656 1626 1447 1270 1315 1570 1763 1709 1567
1442 1576 1436 1145 888 1419 1529 999 713 1313 1490 1810 1665 1596 1620 1656 1535 1451 1594 1623 1658 1546
1464 1626 1857 1652 1389 1182 1416 1749 1274 1029 1547 1718 1930 2024 1845 1701 1577 1649 1711 1648 1723 1784
1779 1706 1748 1929 1850 1647 1462 1304 1717 1766 1680 1620 1997 2071 2036 2075 1902 1789 1778 1696 1664 1613
1912 2065 2040 2032 2094 2101 1871 1700 1239 1434 1789 1762 2075 2171 2049 2041 2184 2138 2071 1991 1938 1916
2198 2180 2258 2226 2163 2136 2237 2247 2002 1584 1627 1784 1923 1999 2035 2104 2308 2279 2232 2254 2236 2201
2176 2390 2383 2410 2330 2299 2340 2351 2434 2413 2213 1930 2015 2048 1952 1942 2222 2322 2492 2464 2420 2476
2191 2356 2468 2439 2489 2495 2510 2587 2579 2610 2728 2735 2625 2380 2207 2108 2378 2364 2412 2594 2681 2460
1869 2218 2414 2541 2586 2645 2718 2657 2707 2767 2790 2876 2987 3029 2510 2270 2732 2786 2712 2684 2700 2716

GFSNIL_con_mlcape_045.txt.gz
CAPE
29 5 2 0 56 202 197 264 320 614 747 681 892 1041 853 748 750 780 496 208 10 7
94 100 54 29 5 142 186 268 170 287 570 701 894 1201 1102 832 862 1011 836 489 335 68
210 216 215 153 64 62 261 264 247 198 297 485 718 1159 1312 1003 888 1062 1120 898 430 360
346 359 390 364 272 265 205 305 412 356 475 619 634 909 1271 1260 1161 998 1099 1245 1131 729
497 558 619 507 405 336 460 320 336 505 576 787 877 895 1112 1218 1313 1292 1143 1342 1461 1215
542 507 620 943 899 542 456 542 556 698 843 740 969 1116 1110 1142 1272 1303 1311 1220 1379 1443
804 740 563 515 792 1064 890 741 747 696 701 1054 1069 1143 1271 1295 1358 1394 1419 1386 1334 1424
947 1028 985 787 652 846 1107 925 842 996 1061 881 1148 1258 1120 1186 1268 1401 1424 1396 1369 1444
974 1139 1180 1130 1103 888 1006 1189 968 757 775 1090 1104 1252 1317 1573 1560 1505 1507 1430 1417 1449
1233 1241 1369 1434 1422 1256 1071 1111 1247 1178 939 884 1131 1122 1201 1361 1675 1737 1731 1702 1629 1622
1604 1539 1501 1637 1740 1677 1508 1353 1225 1187 1437 1420 1428 1311 1182 1307 1603 1818 1885 1875 1842 1842
1759 1759 1848 1769 1739 1837 1934 1874 1700 1577 1354 1257 1495 1473 1428 1387 1673 1756 1919 2060 2063 2123
1767 1873 1929 1990 1958 1980 2092 2084 2189 2213 2172 1843 1643 1541 1392 1323 1704 1729 1880 2088 2226 2148
1794 1904 2058 2084 2149 2168 2189 2247 2291 2305 2332 2400 2311 2235 1705 1513 1982 2064 2140 2240 2329 2376

GFSNIL_con_mlcape_048.txt.gz
CAPE
0 0 0 0 0 0 0 0 190 325 524 648 784 822 823 783 800 660 380 312 20 0
0 0 0 0 0 0 0 0 150 307 375 556 723 743 881 889 803 765 754 657 453 148
0 0 0 0 0 0 0 43 184 309 424 410 560 620 808 1055 993 839 958 963 796 564
40 16 13 7 12 13 0 0 171 279 283 293 292 462 673 946 1280 1097 912 1048 1126 925
101 92 79 69 60 67 17 5 56 349 348 326 322 457 607 646 1118 1328 1193 996 987 1088
191 208 171 176 177 162 166 78 92 293 420 424 502 578 705 842 908 1289 1382 1334 1209 1132
331 325 334 335 327 266 283 333 248 232 376 464 449 671 747 889 1044 1113 1255 1381 1484 1447
447 430 429 498 627 663 408 357 383 372 364 575 688 782 1054 1118 1028 1185 1251 1276 1422 1560
536 509 462 396 445 701 822 720 643 592 578 472 654 684 637 951 1294 1115 989 972 1106 1326
618 710 702 650 557 502 551 822 842 815 788 750 788 703 662 684 975 1263 1364 1398 1460 1463
752 843 909 967 949 865 725 688 903 1002 960 852 806 699 599 617 960 1057 1139 1285 1375 1470
990 982 1039 1131 1154 1153 1136 1054 969 1059 1178 1168 1064 808 658 604 964 1150 1170 1388 1480 1496
1283 1235 1204 1184 1252 1424 1522 1436 1403 1370 1342 1277 1367 1281 1013 959 1247 1191 1311 1509 1625 1568
1527 1519 1510 1501 1533 1610 1702 1805 1862 1833 1809 1790 1576 1559 1217 1063 1559 1644 1699 1691 1703 1853

GFSNIL_con_mlcape_051.txt.gz
CAPE
152 185 184 257 201 251 207 370 851 826 1017 1110 1369 1470 1606 1555 1564 1442 890 787 244 133
170 174 170 226 284 234 248 172 538 591 754 978 1101 1304 1549 1531 1701 1656 1613 1475 1337 855
266 269 272 317 206 231 247 182 108 453 741 1004 1049 1246 1536 1459 1710 1810 1667 1570 1670 1502
313 338 327 311 303 294 279 287 270 409 632 927 1099 1213 1284 1293 1507 1791 1956 1809 1701 1691
268 311 328 318 351 385 335 356 396 452 653 848 973 1147 1163 1071 1169 1562 1878 2018 1897 1705
288 333 333 382 443 482 445 372 398 501 489 706 930 1016 1102 1093 1223 1508 1698 2082 2143 1960
457 461 452 494 546 578 581 473 470 565 614 654 1069 1240 1274 1274 1298 1451 1678 1866 2143 2246
574 606 613 682 713 750 754 706 629 635 701 761 926 913 1182 1330 1379 1357 1530 1806 1967 2110
722 715 737 810 883 904 844 833 859 860 872 838 891 575 644 1003 1392 1669 1722 1565 1788 1956
916 882 901 952 1053 1132 1098 1038 929 956 1036 998 1064 662 408 480 977 1382 1706 1921 1938 1825
1056 1036 1063 1095 1126 1162 1343 1423 1317 1275 1311 1214 1277 916 517 323 706 1262 1545 1592 1724 1959
1107 1126 1205 1202 1163 1125 1111 1153 1264 1482 1536 1402 1381 996 704 595 925 1107 1372 1643 1726 1751
1084 1169 1316 1355 1362 1411 1402 1302 1286 1316 1568 1619 1547 1326 684 587 1149 1243 1249 1589 1748 1462
1312 1342 1447 1563 1719 1799 1800 1808 1816 1709 1772 1777 1705 1819 1142 672 1246 1427 1577 1558 1540 1708

GFSNIL_con_mlcape_054.txt.gz
CAPE
561 200 413 680 419 420 269 313 538 1536 1584 1754 1703 1641 1833 1591 1403 1710 1311 1441 572 35
803 541 391 628 737 561 628 279 423 827 1418 1360 1524 1690 1710 1419 1864 1782 1813 1492 1438 1185
675 805 719 698 750 800 581 789 415 714 923 887 1171 1591 1802 1399 1658 1987 1704 1540 1558 1651
775 790 935 827 947 1147 1068 895 1148 784 675 664 1347 1528 1707 1542 1409 2080 2092 1791 1623 2098
995 980 912 1085 1025 1195 1367 1214 1280 1153 988 794 1056 1502 1791 1672 1184 1581 1880 2080 2046 1951
800 875 931 1107 1141 1286 1396 1432 1264 1282 1284 1128 1033 1404 1755 1790 1593 1474 1692 1891 2029 2018
856 908 868 1155 1345 1295 1444 1516 1492 1354 1349 1349 1118 1018 1408 1569 1702 1635 1690 1903 1981 2260
1197 1157 1194 1346 1461 1413 1490 1537 1620 1568 1418 1452 1322 879 1102 1290 1397 1617 1746 1784 2146 2230
1557 1473 1478 1555 1682 1697 1603 1594 1715 1589 1545 1483 1351 777 586 993 1114 1271 1674 1848 2003 2169
1707 1710 1717 1761 1826 1758 1748 1760 1878 1799 1715 1715 1704 1053 560 484 786 960 1365 1841 1900 1849
1863 1880 1956 1963 1963 2024 1910 1948 1970 1986 2052 2003 1956 1473 949 548 899 1119 1340 1559 1742 2059
1989 1954 1958 1987 2037 2030 2092 2111 2094 2097 2163 2130 2113 1526 1153 888 1085 1166 1498 1612 1845 2000
2078 2135 2101 2154 2195 2268 2190 2232 2169 2231 2340 2320 2398 2133 1250 1021 1331 1271 1284 1593 2012 1704
2125 2264 2309 2415 2446 2400 2211 2084 2219 2169 2297 2461 2401 2519 1617 996 1536 1322 1250 1214 1021 1212

GFSNIL_con_mlcape_057.txt.gz
CAPE
784 194 188 357 350 258 122 153 1878 1926 1571 1764 1822 1771 1839 1612 1502 1599 1452 1344 591 227
789 327 9 70 756 769 333 319 364 1175 1581 1481 1397 1625 1614 1245 1847 1923 1847 1470 1585 1074
1193 1075 517 638 1502 869 951 789 694 670 887 1419 1414 1447 1878 1332 1359 1888 1652 1185 1602 1463
1204 1196 894 1461 1508 1629 1290 1474 1319 1256 1075 1164 1235 1309 2112 1744 1505 1641 1711 1814 1568 1996
1344 1077 944 905 1475 1679 1701 1670 1777 1783 1504 1342 946 1418 2028 1772 1160 1794 1784 1768 1866 1730
1290 1298 1018 1470 1403 1580 1862 2112 1747 1891 2031 1695 1115 1520 2024 2162 1920 1651 1721 1746 1903 1972
1457 1481 1363 1533 1717 1808 2010 2194 2198 2178 2174 2018 1738 1406 1492 1939 2124 1991 1704 1855 1987 2073
1507 1668 1766 1554 1916 1964 2138 2271 2385 2453 2349 2298 1877 1570 1506 1783 1998 2135 1964 1903 2104 2088
1563 1774 1746 1708 1874 2094 2183 2330 2475 2404 2468 2383 1759 1278 1058 1325 1518 1841 2022 2160 2199 2234
1671 1839 1836 1871 1987 2178 2251 2352 2515 2566 2554 2576 2471 1334 926 700 1174 1625 1850 2017 2239 2204
2017 2054 2090 2164 2231 2383 2492 2364 2539 2611 2644 2700 2721 2023 1095 723 965 1094 1422 1978 2114 2278
2103 2417 2491 2433 2493 2684 2690 2661 2615 2774 2792 2814 2831 1984 1409 1020 1108 1208 1487 1772 1789 2109
2373 2628 2750 2815 2870 2911 2842 2826 2506 2667 3010 3121 3162 2722 1640 1281 1611 1391 1448 1907 2123 1893
2697 2812 3007 3129 3145 3176 3137 2558 2938 2780 2936 3054 2882 3275 2104 1347 1921 1516 1496 1447 1170 1491

GFSNIL_con_mlcape_060.txt.gz
CAPE
980 261 344 1087 267 869 473 1099 1504 1757 1577 1672 1624 1661 1479 1627 1797 1505 1383 1157 811 592
823 825 316 648 669 577 566 935 1720 1625 2193 1764 1934 1696 1587 1357 1356 1669 1449 1396 1238 784
118 843 497 161 626 538 828 272 1939 2085 1844 1851 2006 1940 1879 1659 1438 1455 1541 1773 1694 1320
1042 531 324 634 79 1111 643 1729 798 1707 1814 1854 1647 2076 1967 1388 1690 1544 1526 1817 2034 1548
1402 918 719 135 1006 977 1255 1053 1984 1244 1900 1387 1853 1868 1821 2008 1432 1747 1666 1849 1479 2120
1575 1490 1049 723 356 1326 1443 1954 1545 2094 1590 1986 1688 1646 1696 2159 2063 1696 2321 2279 2102 1873
1598 1510 1370 1439 658 1578 1706 1501 1805 1831 2285 2139 1961 1625 1600 2377 2383 2087 1906 2284 1835 2191
1734 1598 1592 1350 1421 741 1462 1911 2022 2074 2294 2451 2393 1965 1562 1816 2350 2390 2259 2079 2200 2205
1690 1699 1673 1438 1522 1646 1476 1716 2118 2303 2335 2550 2535 2031 1463 1600 1725 2353 2359 2246 2161 2477
1659 1796 1700 1846 1506 2003 1837 2052 2172 2317 2455 2558 2660 1971 1306 1298 1632 1759 2135 2344 2325 2354
1514 1712 1905 1890 2046 1831 2214 2114 2304 2402 2466 2567 2663 2436 1483 1022 1307 1586 1819 1883 2110 2290
1578 1827 1912 2039 1993 2130 2126 2353 2362 2548 2596 2523 2649 2470 2043 1180 1000 1235 1330 1410 1782 2431
2050 1870 2112 2134 2162 2236 2286 2362 2538 2498 2654 2814 2792 2579 2174 1689 1578 1254 1372 1560 1675 1481
2470 2092 2397 2421 2427 2500 2559 2646 2710 2718 2775 2996 3008 3078 2348 1603 2019 1693 1731 1568 1714 1990

GFSNIL_con_mlcape_063.txt.gz
CAPE
392 93 198 804 806 777 1006 905 1096 1417 1216 1090 1404 930 1145 1096 1260 1134 1147 756 934 347
464 121 80 225 884 1024 1089 1026 767 1485 1318 1070 1217 981 1210 1113 1258 1448 1333 1186 824 561
202 443 116 109 229 832 311 827 1033 1552 1270 1243 1248 1252 1368 1069 1171 1218 1105 947 1156 649
11 378 342 163 60 515 448 810 994 1482 1528 1583 1408 1614 1702 1315 1264 1321 1037 1186 1354 1415
125 15 348 122 108 107 330 490 1435 1401 1322 1655 1713 1671 1629 1563 1294 1262 1588 1322 1426 1690
849 122 15 38 30 14 110 251 694 1646 1733 1571 1406 1239 1452 1698 1482 1267 1378 1583 1628 1466
1009 932 218 55 0 269 139 568 402 1028 1369 1296 1205 1291 1379 1541 1532 1357 1386 1874 1988 1862
1242 1082 1032 487 324 0 664 361 1410 1046 1623 1605 1452 1427 1227 1331 1545 1540 1547 1351 1489 2117
1406 1334 1224 1133 835 488 31 1214 580 1251 1407 1730 1931 1651 1392 1255 1421 2028 1991 1693 1690 1665
1461 1449 1367 1280 1124 1132 623 590 1584 1187 1204 1339 1632 1788 1679 1439 1255 1226 1789 2006 1985 1892
1481 1435 1492 1401 1320 1128 1130 747 615 1331 1657 1687 1733 1871 1765 1650 1366 1376 1353 1582 1928 2016
1387 1527 1617 1433 1441 1244 1325 1322 1073 1281 1536 1765 1942 1881 1892 1567 1205 1240 1398 1470 1501 1726
1383 1496 1559 1643 1420 1577 1270 1328 1696 1477 1788 1936 1964 1957 1855 1681 1566 1014 1067 1278 1447 1535
1558 1422 1609 1637 1754 1566 1725 1654 1598 1898 1850 2027 2142 2211 1849 1680 2029 1530 1039 1061 1114 1242

GFSNIL_con_mlcape_066.txt.gz
CAPE
168 139 382 644 607 805 941 914 1072 1061 963 902 728 715 816 843 878 847 800 807 716 463
215 217 196 614 687 844 749 737 933 1182 1123 1001 884 645 942 781 843 958 812 724 493 439
0 233 254 227 492 890 808 807 794 1174 1225 1044 918 861 665 795 837 982 985 786 708 208
0 101 309 199 125 381 908 854 988 1112 912 1134 1023 906 895 729 730 943 938 767 796 788
0 2 175 254 170 69 238 690 1021 869 1143 1153 1111 972 1058 1009 1020 898 1135 918 814 1127
88 0 8 187 255 186 37 421 1164 1017 1025 1351 1166 1193 1228 1291 1140 1107 1071 1266 1248 1045
440 182 3 5 177 124 169 30 482 1136 1234 1218 1217 1395 1457 1429 1322 1239 1187 1151 1125 1417
571 657 344 12 0 24 16 122 158 482 1065 1421 1312 1256 1172 1173 1077 1014 1009 1121 1160 1359
608 749 741 542 67 0 0 0 105 287 451 953 1415 1276 1142 1136 1150 1108 966 801 866 1245
1156 965 863 869 654 336 178 0 0 193 573 724 1025 1238 1125 1008 1021 1040 1026 935 938 1173
1437 1369 1271 1038 943 759 562 300 64 264 366 649 1125 1364 1209 1135 1144 1023 1045 1194 1183 1308
1587 1511 1436 1343 1189 1077 960 798 406 370 730 578 617 758 1024 1104 1182 1106 1079 1087 1080 1257
950 1414 1509 1435 1361 1256 1148 1099 954 660 536 995 1127 1189 984 903 1163 1014 1060 1132 1146 1075
884 1180 1401 1441 1420 1370 1307 1171 1168 1091 896 750 849 1056 924 873 1281 1260 1006 959 915 967

GFSNIL_con_mlcape_069.txt.gz
CAPE
0 12 289 402 431 276 572 747 966 850 848 915 706 454 643 667 816 907 467 613 698 481
1 0 118 255 444 535 452 763 942 1013 894 913 864 643 665 737 662 909 719 610 648 471
40 0 4 103 277 618 688 649 826 1022 923 1003 1038 977 666 947 825 890 843 768 603 482
40 29 45 94 129 282 655 717 786 849 940 933 1063 1096 923 610 754 906 833 810 767 593
0 0 0 0 69 135 181 425 851 855 929 999 1042 1040 999 828 792 779 772 970 880 752
2 0 0 0 0 7 117 94 211 532 954 1119 1065 960 1020 913 860 925 959 883 1181 1094
76 13 11 0 0 0 2 34 78 292 738 986 942 1020 1054 1042 1000 975 1064 1044 1034 1056
227 141 3 4 0 0 0 0 6 120 450 998 1173 1127 1106 1061 1098 1084 1136 1200 1186 1188
252 286 160 1 0 0 0 0 0 0 35 259 743 1078 1118 1106 1136 1228 1140 1084 1039 1098
335 367 422 282 32 0 0 0 0 0 0 0 117 433 775 1010 1159 1108 988 944 929 876
545 455 482 576 438 196 22 4 3 0 0 0 0 8 85 369 915 1109 1053 1026 1010 917
810 897 725 708 707 629 393 205 137 48 0 0 37 65 35 53 403 829 975 992 1022 1070
367 1307 1259 1156 1004 881 742 649 473 367 110 89 230 111 91 261 533 498 812 1084 1036 893
155 482 559 1002 1274 1219 1076 947 875 794 552 319 334 507 185 96 607 535 552 642 758 859

GFSNIL_con_mlcape_072.txt.gz
CAPE
58 42 44 78 77 98 181 487 511 789 731 794 598 502 444 481 571 699 517 554 666 608
47 39 50 140 273 247 327 385 630 667 750 715 811 733 418 648 710 718 799 715 631 636
0 0 0 13 263 325 475 476 526 624 725 836 794 879 802 632 721 798 825 853 806 673
13 0 0 0 27 275 334 519 666 741 848 817 689 728 729 781 646 767 821 835 739 814
0 0 34 0 0 77 226 281 501 722 870 903 873 852 1010 1076 904 553 540 786 836 794
0 0 6 0 0 0 71 163 260 425 778 961 988 940 1006 1085 1042 896 722 745 791 908
6 0 0 0 0 0 0 0 96 206 268 513 659 916 1064 1007 992 990 870 834 887 987
0 0 0 0 0 0 0 0 0 57 177 244 429 672 860 901 880 1003 950 938 928 969
132 73 0 0 0 0 0 0 0 0 0 34 288 419 570 930 1001 1030 1060 951 1021 1079
163 186 152 60 0 0 0 0 0 0 0 0 25 94 205 379 790 981 1051 1010 1030 1036
197 241 265 246 125 20 0 0 0 0 0 0 0 0 0 13 243 592 759 964 1008 1022
364 335 337 370 413 318 100 4 0 0 0 0 17 0 0 0 10 51 229 538 681 746
154 508 601 499 495 484 480 392 200 116 49 22 64 1 0 0 32 29 3 118 295 223
6 85 439 849 847 621 631 621 700 606 454 250 138 213 10 0 67 195 164 100 85 386

GFSNIL_con_mlcape_075.txt.gz
CAPE
580 537 480 640 645 847 878 1025 1292 1415 1498 1048 1262 1174 1107 1205 1218 1250 1197 1264 834 1496
393 403 379 523 645 645 752 856 1063 1247 1411 1445 1392 1375 1251 1110 881 1067 1325 1625 1383 1437
272 315 438 542 510 675 790 881 1081 1270 1405 1054 1354 1414 1398 1264 1244 1345 1492 1426 1640 1536
185 173 357 456 473 764 918 1019 1167 1328 1307 1411 1388 1599 1542 1460 1587 1311 1673 1595 1606 1551
214 220 214 220 290 413 660 991 1075 1285 1500 1544 1592 1647 1503 1379 1432 1143 1218 1403 1613 1449
51 178 265 331 284 282 303 714 949 1089 1178 1511 1655 1674 1666 1676 1375 1615 1647 1448 1461 1499
24 25 130 425 489 439 276 250 604 869 1033 1184 1578 1776 1759 1778 1770 1893 1885 1729 1601 1492
321 67 24 162 364 456 476 365 337 524 745 978 1137 1239 1479 1608 1765 1712 1586 1797 1720 1612
511 500 398 304 286 312 343 428 389 317 352 504 718 564 526 1028 1452 1583 1497 1496 1774 1717
523 630 567 489 424 369 315 346 370 335 388 334 387 344 278 331 786 1413 1543 1508 1626 1737
559 549 678 686 605 524 453 396 383 407 401 372 382 135 16 33 360 997 1349 1432 1555 1636
489 837 710 744 777 770 617 493 415 416 435 457 425 133 3 0 116 262 853 1183 1231 1375
21 249 830 932 901 922 978 742 661 527 476 424 475 349 50 0 121 300 322 522 772 722
6 3 63 619 1131 1038 1057 1099 1115 1059 881 736 642 564 179 2 103 372 578 652 635 612

GFSNIL_con_mlcape_078.txt.gz
CAPE
1343 1003 809 780 499 635 806 998 1272 1907 1182 1263 1362 1579 1975 1011 795 1219 536 1012 1243 910
1346 1234 570 452 739 762 892 871 1378 1703 1588 1237 1284 1280 1723 1121 1333 1396 1324 1202 1072 1071
1102 1248 1130 861 785 834 658 1146 1006 1783 1806 1422 1670 1743 1813 1303 1282 1482 1320 1173 1241 1571
917 1021 1143 929 835 1065 914 1046 1522 1848 1741 1589 1639 1711 2157 1789 1477 1772 1427 1579 1666 1803
1066 969 788 963 850 986 1090 1102 1577 1879 1710 1144 1427 1681 2097 1864 1328 1517 1470 1541 1662 1692
770 873 781 759 983 948 1068 1056 989 1521 1917 1604 1319 1798 1938 2127 2011 1700 1631 1518 1727 1571
652 745 661 686 914 1018 1109 1150 967 1054 1470 1811 1467 1493 1896 2206 2274 1885 1678 1949 2031 1917
853 792 694 538 718 948 1143 1189 1194 964 1040 1397 1540 1607 1860 2181 2133 1938 1928 2071 2320 2123
842 927 1041 849 486 903 1072 1250 1256 1225 971 808 565 523 885 1271 1906 2088 2221 2115 2072 2159
785 1068 1063 1152 1127 1038 976 1091 1216 1221 1169 1107 977 301 101 455 836 1040 1446 1791 1801 1657
589 897 958 1004 1105 1204 1194 1132 1126 1165 1265 1241 1271 791 382 94 434 608 996 1256 1466 1809
2 32 601 1079 978 1059 1192 1177 1189 1160 1218 1347 1390 969 521 262 508 436 653 877 1252 1465
3 2 1 134 773 952 1133 1173 1332 1216 1228 1245 1319 1294 754 270 514 515 599 779 1025 1015
0 0 2 1 8 487 1161 1245 1219 1307 1369 1442 1390 1317 731 357 563 632 662 730 756 829

GFSNIL_con_mlcape_081.txt.gz
CAPE
1513 1133 683 1029 773 659 699 854 2245 1662 1364 1387 1393 1493 1596 1427 1371 1064 1141 1097 1420 1478
1782 1582 736 687 909 709 1065 872 1481 1071 1318 1344 1351 1452 1523 1455 1776 1700 1700 1121 1235 1245
1554 1769 1510 953 850 727 901 1104 849 1219 1572 1664 1313 1441 1506 1459 1526 1436 1363 771 1628 1241
1439 1519 1702 1403 1165 983 1106 1179 1246 1688 1624 1774 1835 1699 1684 1489 1701 1847 1514 1575 1686 1465
1478 1529 1380 1564 1367 1240 1226 1225 1086 1469 1818 1893 1545 1760 1874 1743 1066 1327 1703 1415 1403 1372
1435 1397 1371 1330 1456 1382 1377 1441 1049 1334 1674 1866 1362 1800 1863 1857 1775 1851 1817 1828 1526 1321
1335 1309 1368 1393 1460 1403 1548 1557 1470 1208 1486 1870 1545 1287 1663 1946 1672 1960 1930 1802 1849 1717
1307 1156 1249 1396 1414 1389 1530 1631 1699 1658 1297 1524 1565 1441 1410 1685 1744 1761 2214 1936 2042 2096
918 1089 1569 1432 1369 1341 1364 1755 1955 1806 1721 1370 1043 516 744 1582 1896 1958 2268 1964 1932 1874
192 711 940 1363 1644 1581 1410 1514 1827 1904 1877 1845 1751 946 262 410 1009 1387 1934 2019 2142 2009
0 31 260 822 1132 1211 1647 1635 1571 1804 2001 2092 2076 1480 858 287 510 893 1243 1454 1979 2211
0 1 3 35 154 919 1225 1150 1317 1547 1697 1577 2104 1692 1154 815 819 532 741 1160 1324 1374
0 0 0 0 3 39 616 1295 1479 1398 1234 1361 1653 1922 1518 1005 1182 1015 914 1098 1214 1027
0 0 0 0 1 0 4 292 1135 1520 1499 1479 1513 1616 1321 1022 1425 1280 1037 1034 998 1160

GFSNIL_con_mlcape_084.txt.gz
CAPE
970 1175 899 1166 1172 178 395 605 1413 1343 1727 1688 1434 1610 1595 1871 1278 1490 983 594 762 1198
1787 1444 368 346 821 710 1112 502 1101 934 1478 1337 1540 1448 1525 1304 1527 1595 1620 1307 992 912
2049 1789 1569 1680 963 1351 1526 573 516 604 978 1372 1600 1544 1527 1643 1204 1519 1559 1252 1486 990
1833 2022 2015 1667 1493 930 1169 1167 425 0 370 1350 1449 1461 1500 1109 1166 1340 1095 1378 1153 1476
1912 1685 1893 1853 1767 1597 1228 1254 1210 1372 1519 1599 1495 1526 1459 1491 1175 1222 1409 1404 1243 1227
1711 1770 1772 1926 1825 1946 1799 1584 1562 1162 1513 1750 1800 1630 1576 1398 1416 1629 1521 1725 1546 1242
1738 1750 1607 1864 2037 1887 2015 1879 1859 1685 1786 1755 1847 1916 1752 1893 1696 1861 1644 1849 2010 2087
778 1571 1616 1601 1519 1787 1960 2029 2094 2054 1739 1923 2154 1803 1538 1683 1957 1523 1389 1644 1914 2147
356 569 871 1032 1222 1453 1594 1902 2072 2063 2176 1916 1470 1181 1071 1205 1207 2076 1979 1488 1772 2054
7 102 183 537 1078 1173 1199 1290 1636 1959 2136 2120 2180 1544 932 448 1330 2054 1988 1843 1982 2034
0 0 0 88 159 349 730 1172 1289 1477 1857 2016 2260 2097 1791 1118 831 770 1160 1336 1783 2042
0 0 0 0 0 1 67 435 1059 1353 1433 1660 1977 2019 1495 1493 1308 1155 936 846 1173 1425
0 0 0 0 0 0 0 0 168 658 1354 1530 1350 1814 1584 1142 1662 1530 1497 1402 1147 741
0 0 0 0 0 0 0 0 5 145 678 1191 1469 1766 1325 1152 1326 1764 1680 1552 1458 1501

GFSNIL_con_mlcape_087.txt.gz
CAPE
713 621 504 515 427 751 125 173 530 900 996 1356 912 1113 1385 1170 1092 1102 1126 485 386 66
998 848 593 832 811 442 354 800 985 837 960 1251 1342 996 1319 1167 1353 1226 982 866 560 326
773 810 1004 1075 1068 974 692 562 407 690 811 1124 1300 1256 1073 1014 1021 1145 1193 1395 965 1115
1317 1230 1097 1137 1536 1217 809 491 449 345 482 872 1172 1227 1252 1122 971 1234 1215 803 1333 933
1748 1807 1661 1401 1346 1546 814 687 702 240 0 417 1011 1449 1336 967 1119 913 1102 842 1192 661
1793 1819 1858 1751 1485 1366 1378 1060 1049 813 819 1042 1133 1058 1510 1261 1073 1342 1187 1077 1115 1366
654 832 1542 2005 1912 1767 1687 1557 1311 1298 1214 1341 1367 1463 1697 1471 1116 985 1335 1530 1611 1698
38 368 933 1146 1861 1746 1730 1845 1627 1452 1499 1746 1705 1406 1278 1545 1651 1580 1393 1280 1429 1620
11 219 333 700 1078 1289 1279 1241 1760 1704 1736 1494 1522 1941 1660 1562 1361 1365 1631 1477 1348 1411
2 26 120 157 294 468 647 1160 1240 1271 1440 1461 1717 1539 1110 827 848 1096 1168 1348 1636 1390
0 0 0 2 20 85 148 395 790 991 1122 1314 1393 1374 1371 1264 739 790 972 1108 1502 1790
0 0 0 0 0 0 0 6 117 363 675 931 1143 1240 1121 960 919 1072 1040 997 1001 955
0 0 0 0 0 0 0 0 0 0 88 339 698 980 820 846 923 1054 1237 1390 1325 1126
0 0 0 0 0 0 0 0 0 0 0 12 600 204 109 232 588 741 884 1127 1126 1297

GFSNIL_con_mlcape_090.txt.gz
CAPE
624 506 464 530 484 592 568 562 759 1100 1311 1085 829 650 753 966 983 812 958 707 599 169
602 476 472 510 307 551 645 38 579 609 1033 1070 1219 546 1213 1129 1067 1109 990 819 900 686
382 713 457 505 842 724 622 399 885 798 831 845 1210 1138 926 1034 826 888 952 983 1132 907
349 704 675 534 943 900 594 551 680 541 689 630 936 1265 1094 909 857 885 1046 886 845 816
399 653 695 573 942 1315 945 637 439 372 287 487 745 990 1168 1100 1020 787 678 1139 910 710
345 378 700 1050 1050 1224 1229 670 523 520 292 25 127 621 1266 1314 1029 916 1068 1106 792 879
358 465 626 838 1169 786 1101 1100 804 778 675 659 846 886 988 1145 1100 1093 972 1049 1195 1319
125 276 488 788 968 1387 1126 1099 1231 1204 1234 1215 1239 1218 1177 1274 1402 1388 1198 1205 1338 1445
35 111 145 257 362 613 847 1112 1204 1335 1296 1150 1332 1403 1265 1330 1251 1319 1475 1356 1318 1378
35 23 15 34 95 192 272 455 760 886 1056 1207 1297 1308 1163 1092 893 1076 1166 1149 1157 1138
0 0 0 0 1 39 22 98 235 480 665 758 1053 1148 1058 1010 825 751 713 799 984 1134
0 0 0 0 0 0 0 0 2 45 110 313 526 515 559 596 806 847 899 859 936 1015
0 0 0 0 0 0 0 0 0 0 6 2 193 82 145 291 573 712 810 950 1009 898
0 0 0 0 0 0 0 0 0 0 4 7 0 0 0 0 0 0 48 133 347 480

GFSNIL_con_mlcape_093.txt.gz
CAPE
466 325 183 341 430 535 463 458 745 907 1022 926 888 543 134 805 915 900 883 730 774 430
493 482 408 398 420 473 590 519 467 747 960 741 819 857 705 830 943 1130 966 831 831 918
503 519 450 430 499 409 419 622 317 251 602 838 1000 1064 577 808 988 860 818 965 1024 978
384 478 540 479 457 698 712 591 517 726 691 820 754 952 1131 897 851 852 868 898 932 888
310 463 438 392 590 498 863 591 493 640 516 532 567 743 994 1131 1063 922 729 698 828 911
453 558 511 377 550 616 811 757 708 502 333 270 344 498 752 900 788 961 915 874 913 935
186 215 342 491 623 623 848 814 825 609 396 328 291 46 213 643 906 941 960 962 952 870
62 115 158 193 261 414 706 941 870 733 721 720 745 829 928 1015 1066 1137 1057 1000 1005 994
42 11 14 22 63 148 229 325 578 806 970 914 1199 1316 1267 1225 1165 1253 1243 1137 1172 1100
3 8 8 1 0 5 16 51 148 327 521 718 818 916 930 1063 1089 1032 917 922 1016 1028
3 0 1 0 0 0 2 0 6 78 118 240 377 395 534 601 557 721 699 663 700 758
0 0 0 0 0 0 0 0 0 0 23 63 118 82 192 480 540 628 647 554 616 695
0 0 0 0 0 0 0 0 0 0 77 45 0 0 0 0 0 0 0 0 28 13
0 0 0 0 0 0 0 0 6 0 0 0 0 0 0 0 0 0 0 0 0 0

GFSNIL_con_mlcape_096.txt.gz
CAPE
132 196 251 282 309 384 422 426 421 602 902 797 716 459 257 450 871 763 787 825 717 532
189 205 209 216 306 362 427 383 376 607 762 791 773 786 558 433 734 991 958 821 758 957
318 318 324 301 322 329 241 403 398 317 330 675 698 777 725 549 799 887 776 852 946 978
207 388 402 362 350 471 500 478 342 327 326 459 589 794 903 807 764 789 825 837 867 866
135 201 391 356 320 464 504 366 282 339 509 543 555 603 730 851 877 623 680 713 702 622
314 329 313 369 401 410 509 478 380 291 411 320 249 334 496 623 733 743 793 669 788 765
167 174 207 272 332 382 436 563 570 475 559 501 335 220 159 248 545 687 814 788 766 842
19 4 11 20 91 135 247 405 652 736 619 514 360 388 479 437 651 890 946 1035 1078 1016
18 9 0 12 0 0 0 21 112 298 498 662 694 809 820 938 1049 1125 1104 1196 1271 1207
4 20 3 4 0 0 0 0 0 2 32 138 272 180 356 542 779 1018 1012 956 899 868
3 2 2 0 0 0 0 0 0 0 5 62 46 20 120 188 327 451 410 399 465 519
0 0 0 0 0 0 0 0 0 0 62 0 0 0 0 24 107 82 63 67 37 32
0 0 0 0 0 0 0 0 0 2 0 0 0 0 0 0 0 0 0 0 0 0
0 0 0 0 0 0 0 0 0 0 0 0 0 0 0 0 0 0 0 0 0 0

GFSNIL_con_mlcape_099.txt.gz
CAPE
452 580 677 767 801 931 927 881 1067 1030 918 1300 1234 1053 917 1129 1526 1394 1413 1310 1253 1244
274 439 500 566 669 824 923 1012 937 1146 1038 1058 1124 1356 1101 793 1244 1605 1622 1363 1331 1536
475 417 602 664 707 766 809 862 924 874 934 1153 1147 1004 826 1280 1318 1316 1496 1315 1537 1684
391 647 718 648 664 812 791 832 900 803 634 674 811 1039 1303 1167 1199 845 1134 1149 1418 1527
199 351 677 771 567 865 624 697 769 754 855 1011 964 1224 1342 1237 1267 972 754 736 912 880
161 318 526 726 909 894 566 487 980 806 718 846 755 654 868 806 927 967 744 807 925 879
215 329 629 691 619 818 846 624 1014 997 909 1006 750 644 639 678 953 912 889 689 901 796
141 209 320 354 365 398 642 798 1021 1070 1130 1100 928 687 702 797 787 740 1259 1229 1087 1191
26 60 116 159 172 190 246 334 403 453 533 584 832 177 344 577 1259 1491 1538 1559 1329 1568
4 0 3 44 66 48 44 68 80 119 217 124 0 0 84 254 903 918 1223 1311 1158 1076
2 0 0 11 25 22 15 6 7 132 0 0 0 0 42 217 648 859 612 340 247 189
2 1 1 1 0 0 0 0 40 0 0 0 0 0 0 1 1 5 1 0 0 0
0 0 0 0 0 0 0 3 3 1 0 0 0 0 0 0 0 0 0 0 0 0
0 0 0 0 0 0 0 0 0 0 0 0 0 0 0 0 0 0 0 0 0 0

GFSNIL_con_mlcape_102.txt.gz
CAPE
621 309 226 393 1028 544 874 771 1292 891 1083 1252 1058 1479 1693 1416 1041 1311 1100 1567 1797 1158
404 420 596 699 596 851 706 1185 1106 1300 1092 1249 1192 1494 1544 1066 1467 1733 1690 1301 1397 1219
508 481 267 486 338 682 783 1037 1417 1543 1450 1086 1114 1024 1263 1090 1169 1558 1191 1062 1441 1456
542 417 568 526 396 748 561 787 1228 1283 1586 1323 1076 1231 1602 1493 1230 1422 1089 1216 1395 1577
257 455 372 603 466 775 636 987 924 1019 1176 1172 925 1055 1472 1228 865 1139 910 876 980 1204
246 265 400 529 602 761 586 711 857 1092 1147 783 1183 782 1000 1115 1199 1104 969 809 910 883
347 386 420 603 833 773 1020 569 583 774 1181 955 836 991 1012 1078 1165 1096 919 1103 932 1015
632 696 794 726 945 969 981 651 931 888 1235 1274 1074 737 1443 1471 1401 1431 1234 1270 1141 1034
42 191 483 729 914 967 1130 1307 1364 1448 1417 1297 1000 63 201 469 1336 1553 1259 1212 1409 1144
44 43 135 221 416 576 676 804 823 873 884 185 25 0 32 156 1019 1439 1130 1336 1454 1303
23 4 1 21 42 148 215 315 436 256 47 0 0 0 95 337 1179 788 393 299 204 111
1 0 0 0 14 44 106 199 281 45 0 0 0 0 0 227 198 138 19 0 0 0
0 10 13 17 0 0 70 45 0 0 0 0 0 0 0 0 10 0 0 0 0 0
0 0 1 0 3 3 0 0 0 0 0 0 0 0 0 0 0 0 0 0 0 0

GFSNIL_con_mlcape_105.txt.gz
CAPE
865 555 333 512 771 797 828 656 1229 1200 1081 1118 1588 1471 1695 1389 967 1283 1312 1634 2003 1722
775 656 577 203 945 1175 853 991 1501 974 1064 1132 1118 1355 1594 1261 1628 1710 1681 1159 1389 1269
603 591 648 699 682 305 585 825 1167 1188 1333 1388 1390 1453 1501 1061 1214 1361 1316 698 957 1623
316 291 368 261 394 596 666 791 1104 1320 1319 1166 1513 1483 1445 1735 1294 1523 1248 1160 1244 962
585 396 281 296 373 734 899 1045 1084 1434 1252 971 1258 1329 1519 1732 901 982 1078 1044 1071 1112
573 444 368 291 339 470 874 892 1041 1029 1014 1130 1206 1064 1354 1518 1056 1049 854 792 938 1088
943 517 569 598 355 533 894 858 818 968 1037 1160 1102 1237 1037 1211 1314 1296 1063 1070 1088 999
701 915 790 835 932 486 533 626 711 761 1040 962 952 565 913 1087 1326 1519 1223 969 1130 916
489 879 931 831 938 879 788 669 735 818 1025 1038 742 0 130 377 1344 1317 1546 1431 1083 825
175 91 135 435 675 742 759 901 1040 958 1069 940 282 0 0 170 629 1193 1555 1383 1455 1427
7 5 58 69 125 262 395 599 585 526 216 43 0 0 0 39 1013 1385 1349 1271 1058 882
148 58 15 11 25 47 125 218 177 116 58 0 0 0 0 0 893 464 272 53 19 19
9 0 0 0 0 0 8 17 27 0 0 0 0 0 0 0 253 303 46 0 0 0
0 0 1 1 12 2 1 0 0 0 0 0 0 0 0 0 0 0 9 1 0 0

GFSNIL_con_mlcape_108.txt.gz
CAPE
820 874 739 532 400 41 0 253 983 1112 1163 1189 1593 1465 1461 1529 1122 1319 1436 1663 1197 1095
958 762 710 356 20 35 11 251 788 1074 1057 1161 1043 1329 1492 1335 1262 1162 849 1109 1256 892
782 728 953 212 214 32 45 284 157 471 1029 1111 1099 872 1150 1063 1093 1026 1218 1330 1198 1620
537 689 479 575 484 125 82 604 152 716 1355 1230 1197 1277 1451 1197 881 1141 1087 1209 1110 1027
366 296 421 308 498 357 902 1099 899 957 1228 1083 1194 1247 1371 1204 1115 940 782 914 1014 1001
458 664 282 211 114 396 773 907 971 1098 823 1013 1074 1082 1459 1292 1084 1103 1015 898 794 850
504 496 397 430 556 561 690 733 866 807 759 944 819 1178 1141 1332 1118 1109 1248 1068 847 621
487 648 646 614 561 432 805 741 608 794 769 968 502 110 269 1081 1083 894 933 1464 1414 1126
80 144 369 415 584 781 756 563 585 583 659 684 22 0 0 96 917 883 1045 550 684 992
165 73 170 215 468 636 405 384 579 737 890 371 0 0 0 0 263 623 967 1237 1123 914
151 53 21 84 105 133 177 235 390 228 71 14 0 0 0 0 135 497 890 810 1001 216
78 0 0 8 11 41 82 90 29 1 0 0 0 0 0 0 1169 513 44 0 0 0
139 25 2 0 0 0 32 7 0 0 0 0 0 0 0 0 269 196 0 0 0 0
25 4 0 0 8 0 0 0 0 0 0 0 0 0 0 0 0 0 0 0 0 0

GFSNIL_con_mlcape_111.txt.gz
CAPE
460 396 267 139 10 23 0 133 288 598 841 782 1227 1021 1445 886 1329 999 943 896 880 1278
554 393 258 222 196 61 0 14 359 496 670 822 1024 1003 1116 1125 853 991 703 660 1134 1132
567 593 274 93 2 0 0 0 71 424 570 922 730 477 971 840 674 1065 954 1043 861 1056
682 562 375 227 155 49 0 63 142 76 468 950 728 866 976 902 533 851 657 895 608 700
394 420 539 509 266 2 0 157 82 9 656 770 792 1010 707 734 1031 729 583 630 726 697
557 451 413 305 436 305 305 615 666 756 615 774 912 837 836 1108 684 663 959 748 751 652
521 564 539 491 196 552 705 506 422 805 744 493 592 356 849 962 906 652 790 973 962 621
273 510 660 533 418 663 471 657 508 666 680 182 60 17 69 294 858 768 468 448 514 732
248 283 364 310 379 355 345 352 354 447 427 0 0 0 0 20 340 687 573 494 531 145
125 96 141 121 197 256 125 147 117 172 25 0 0 0 0 0 65 349 552 497 401 57
154 104 76 79 73 110 113 96 100 25 0 0 0 0 0 0 34 50 17 1 0 0
150 62 18 0 0 49 38 4 0 0 0 0 0 0 0 43 79 17 0 0 0 0
110 24 0 0 0 0 0 0 0 0 0 0 0 0 0 6 74 0 0 0 0 0
117 32 15 1 0 0 0 0 0 0 0 0 0 0 0 0 0 0 0 0 0 0

GFSNIL_con_mlcape_114.txt.gz
CAPE
268 234 98 80 0 61 139 194 225 446 550 838 912 680 1168 804 1047 840 736 725 1075 522
325 260 245 91 58 14 29 14 187 458 410 718 690 906 944 942 922 874 668 955 1000 918
244 226 223 125 140 120 3 0 61 319 338 462 763 861 820 814 625 665 729 798 624 729
279 312 256 211 69 0 0 0 0 55 269 465 769 625 728 829 504 535 780 703 619 480
250 319 198 232 94 101 0 0 24 68 239 354 772 727 581 610 912 325 397 434 573 625
197 341 251 147 141 102 61 0 121 115 84 307 694 499 460 468 392 636 674 626 644 609
322 404 229 210 288 160 14 71 181 333 352 425 298 191 268 326 705 570 502 507 705 695
294 233 331 334 276 330 295 261 504 460 309 93 72 39 43 131 328 622 499 413 495 381
233 311 277 234 222 277 221 139 215 261 152 65 0 0 0 8 123 499 395 308 120 71
175 139 134 225 130 160 151 108 94 15 0 0 0 0 0 0 9 270 451 290 84 0
149 139 81 111 139 204 137 114 67 1 0 0 0 0 0 0 0 15 59 33 0 0
134 75 19 20 68 62 56 16 0 0 0 0 0 0 0 40 0 0 0 0 0 0
97 48 33 43 34 4 0 0 0 0 0 0 0 0 0 2 0 0 0 0 0 0
61 25 13 22 0 0 0 0 0 0 0 0 0 0 0 0 0 0 0 0 0 0

GFSNIL_con_mlcape_117.txt.gz
CAPE
165 145 102 106 73 157 179 162 222 373 553 512 897 547 761 733 926 715 685 626 737 180
181 191 152 120 8 10 32 76 119 343 445 543 682 768 783 865 725 675 550 720 700 592
142 183 200 211 49 13 0 4 6 285 385 298 534 698 814 788 722 591 552 719 609 648
99 158 182 176 33 78 35 11 0 2 261 246 484 637 579 689 671 411 591 660 494 465
150 174 183 149 145 38 0 0 0 0 40 228 487 511 501 582 679 663 359 408 432 417
328 232 267 219 178 71 0 0 0 62 43 185 305 567 567 388 354 368 406 421 400 467
276 345 290 238 190 176 0 51 0 27 159 139 271 286 306 348 410 333 392 383 464 620
306 391 291 285 295 231 162 82 0 95 238 145 87 54 58 89 153 0 307 374 371 260
334 454 401 347 298 339 227 131 159 183 159 0 0 0 0 0 28 163 294 359 202 153
255 211 195 208 249 212 152 63 53 23 0 0 0 0 0 0 1 92 160 197 137 6
143 151 155 142 194 156 102 80 49 1 0 0 0 0 0 0 0 10 15 37 3 0
76 119 116 97 84 61 123 97 39 0 0 0 0 0 0 23 1 0 0 0 0 0
94 72 60 21 16 19 28 29 5 0 0 0 0 0 0 0 0 0 0 0 0 0
81 48 40 23 17 2 7 6 0 0 0 0 0 0 0 0 0 0 0 0 0 0